Location: Warszawa
(52.2500°N, 21.0000°E)
Time: 19:13:08
(UTC+02:00)

Vanguard 2 - Pass Details

Date: 06 February 2023
Orbit: 553 x 2927 km, 32.9° (Epoch: 27 March)

Event Time Altitude Azimuth Distance (km) Brightness Sun altitude
Exits shadow 03:12:58 12° 187° (S) 5,245 11.5 -36.0°
Drops below altitude 10° 03:14:19 10° 182° (S) 5,364 11.6 -35.8°
Sets 03:19:57 0° 167° (SSE) 6,042 12.0 -35.0°
